Time,TemperatureF,DewpointF,PressureIn,WindDirection,WindDirectionDegrees,WindSpeedMPH,WindSpeedGustMPH,Humidity,HourlyPrecipIn,Conditions,Clouds,dailyrainin,SoftwareType,DateUTC
2013-07-22 00:01:00,81.0,73.0,-100.00,East,79,14.0,21.0,78,-99.99,,,-99.99,,2013-07-22 04:01:00,
2013-07-22 00:12:00,81.0,73.0,-100.00,East,86,18.0,21.0,78,-99.99,,,-99.99,,2013-07-22 04:12:00,
2013-07-22 00:33:00,81.0,73.0,-100.00,SE,129,10.0,16.0,78,-99.99,,,-99.99,,2013-07-22 04:33:00,
2013-07-22 00:43:00,81.0,74.0,-100.00,ESE,122,10.0,16.0,79,-99.99,,,-99.99,,2013-07-22 04:43:00,
2013-07-22 01:02:00,81.0,74.0,-100.00,SE,128,11.0,21.0,80,-99.99,,,-99.99,,2013-07-22 05:02:00,
2013-07-22 01:11:00,81.0,75.0,-100.00,SE,142,12.0,22.0,81,-99.99,,,-99.99,,2013-07-22 05:11:00,
2013-07-22 01:22:00,81.0,74.0,-100.00,SE,129,16.0,20.0,79,-99.99,,,-99.99,,2013-07-22 05:22:00,
2013-07-22 01:32:00,81.0,74.0,-100.00,SE,128,12.0,19.0,80,-99.99,,,-99.99,,2013-07-22 05:32:00,
2013-07-22 01:43:00,81.0,74.0,-100.00,SE,131,10.0,18.0,79,-99.99,,,-99.99,,2013-07-22 05:43:00,
2013-07-22 01:52:00,81.0,74.0,-100.00,SE,125,12.0,19.0,79,-99.99,,,-99.99,,2013-07-22 05:52:00,
2013-07-22 02:01:00,80.0,73.0,-100.00,SE,136,21.0,23.0,80,-99.99,,,-99.99,,2013-07-22 06:01:00,
2013-07-22 02:11:00,80.0,73.0,-100.00,SE,134,21.0,25.0,79,-99.99,,,-99.99,,2013-07-22 06:11:00,
2013-07-22 02:22:00,81.0,73.0,-100.00,SSE,153,15.0,22.0,78,-99.99,,,-99.99,,2013-07-22 06:22:00,
2013-07-22 02:33:00,81.0,73.0,-100.00,SSE,148,13.0,21.0,78,-99.99,,,-99.99,,2013-07-22 06:33:00,
2013-07-22 02:43:00,81.0,74.0,-100.00,SE,141,19.0,23.0,80,-99.99,,,-99.99,,2013-07-22 06:43:00,
2013-07-22 02:52:00,81.0,74.0,-100.00,SE,131,15.0,20.0,79,-99.99,,,-99.99,,2013-07-22 06:52:00,
2013-07-22 03:01:00,81.0,73.0,-100.00,SE,134,16.0,19.0,78,-99.99,,,-99.99,,2013-07-22 07:01:00,
2013-07-22 03:12:00,80.0,73.0,-100.00,SE,138,15.0,20.0,79,-99.99,,,-99.99,,2013-07-22 07:12:00,
2013-07-22 03:22:00,81.0,73.0,-100.00,SSE,152,13.0,18.0,78,-99.99,,,-99.99,,2013-07-22 07:22:00,
2013-07-22 03:33:00,81.0,73.0,-100.00,SE,125,8.0,18.0,77,-99.99,,,-99.99,,2013-07-22 07:33:00,
2013-07-22 03:43:00,81.0,73.0,-100.00,SSE,150,8.0,16.0,77,-99.99,,,-99.99,,2013-07-22 07:43:00,
2013-07-22 03:52:00,81.0,73.0,-100.00,South,184,9.0,18.0,78,-99.99,,,-99.99,,2013-07-22 07:52:00,
2013-07-22 04:02:00,82.0,74.0,-100.00,SE,139,7.0,14.0,77,-99.99,,,-99.99,,2013-07-22 08:02:00,
2013-07-22 04:11:00,81.0,73.0,-100.00,SE,146,6.0,14.0,77,-99.99,,,-99.99,,2013-07-22 08:11:00,
2013-07-22 04:22:00,81.0,73.0,-100.00,South,173,7.0,15.0,77,-99.99,,,-99.99,,2013-07-22 08:22:00,
2013-07-22 04:32:00,81.0,73.0,-100.00,WSW,239,6.0,13.0,77,-99.99,,,-99.99,,2013-07-22 08:32:00,
2013-07-22 04:43:00,82.0,74.0,-100.00,SSE,149,6.0,18.0,76,-99.99,,,-99.99,,2013-07-22 08:43:00,
2013-07-22 04:52:00,82.0,74.0,-100.00,SSE,159,5.0,10.0,77,-99.99,,,-99.99,,2013-07-22 08:52:00,
2013-07-22 05:02:00,82.0,74.0,-100.00,South,172,7.0,13.0,76,-99.99,,,-99.99,,2013-07-22 09:02:00,
2013-07-22 05:11:00,82.0,74.0,-100.00,SE,146,7.0,15.0,77,-99.99,,,-99.99,,2013-07-22 09:11:00,
2013-07-22 05:22:00,81.0,73.0,-100.00,SE,124,7.0,14.0,76,-99.99,,,-99.99,,2013-07-22 09:22:00,
2013-07-22 05:33:00,81.0,73.0,-100.00,SSW,195,6.0,13.0,76,-99.99,,,-99.99,,2013-07-22 09:33:00,
2013-07-22 05:42:00,82.0,74.0,-100.00,SSE,150,6.0,12.0,77,-99.99,,,-99.99,,2013-07-22 09:42:00,
2013-07-22 05:52:00,82.0,74.0,-100.00,South,181,8.0,15.0,77,-99.99,,,-99.99,,2013-07-22 09:52:00,
2013-07-22 06:02:00,81.0,73.0,-100.00,SE,136,10.0,17.0,77,-99.99,,,-99.99,,2013-07-22 10:02:00,
2013-07-22 06:11:00,82.0,74.0,-100.00,NNW,335,5.0,11.0,77,-99.99,,,-99.99,,2013-07-22 10:11:00,
2013-07-22 06:22:00,82.0,74.0,-100.00,SSE,163,7.0,16.0,76,-99.99,,,-99.99,,2013-07-22 10:22:00,
2013-07-22 06:32:00,82.0,74.0,-100.00,SSW,210,7.0,14.0,77,-99.99,,,-99.99,,2013-07-22 10:32:00,
2013-07-22 06:43:00,81.0,74.0,-100.00,SSW,207,7.0,16.0,79,-99.99,,,-99.99,,2013-07-22 10:43:00,
2013-07-22 06:52:00,81.0,74.0,-100.00,ENE,76,9.0,15.0,79,-99.99,,,-99.99,,2013-07-22 10:52:00,
2013-07-22 07:02:00,81.0,74.0,-100.00,SSE,167,7.0,14.0,79,-99.99,,,-99.99,,2013-07-22 11:02:00,
2013-07-22 07:11:00,81.0,74.0,-100.00,SSE,163,9.0,23.0,79,-99.99,,,-99.99,,2013-07-22 11:11:00,
2013-07-22 07:23:00,81.0,74.0,-100.00,NE,34,8.0,14.0,79,-99.99,,,-99.99,,2013-07-22 11:23:00,
2013-07-22 07:32:00,81.0,74.0,-100.00,ENE,65,8.0,12.0,79,-99.99,,,-99.99,,2013-07-22 11:32:00,
2013-07-22 07:43:00,81.0,73.0,-100.00,East,89,8.0,15.0,78,-99.99,,,-99.99,,2013-07-22 11:43:00,
2013-07-22 07:52:00,81.0,73.0,-100.00,SE,125,8.0,15.0,77,-99.99,,,-99.99,,2013-07-22 11:52:00,
2013-07-22 08:02:00,81.0,73.0,-100.00,NE,56,8.0,16.0,77,-99.99,,,-99.99,,2013-07-22 12:02:00,
2013-07-22 08:11:00,82.0,74.0,-100.00,SSW,193,8.0,15.0,76,-99.99,,,-99.99,,2013-07-22 12:11:00,
2013-07-22 08:22:00,81.0,73.0,-100.00,NNE,18,8.0,15.0,77,-99.99,,,-99.99,,2013-07-22 12:22:00,
2013-07-22 08:33:00,81.0,73.0,-100.00,East,90,8.0,14.0,77,-99.99,,,-99.99,,2013-07-22 12:33:00,
2013-07-22 08:43:00,81.0,73.0,-100.00,ENE,77,8.0,15.0,76,-99.99,,,-99.99,,2013-07-22 12:43:00,
2013-07-22 08:53:00,81.0,73.0,-100.00,SSW,200,9.0,20.0,76,-99.99,,,-99.99,,2013-07-22 12:53:00,
2013-07-22 09:01:00,81.0,72.0,-100.00,SSE,166,7.0,13.0,75,-99.99,,,-99.99,,2013-07-22 13:01:00,
2013-07-22 09:11:00,82.0,73.0,-100.00,SSW,205,7.0,14.0,74,-99.99,,,-99.99,,2013-07-22 13:11:00,
2013-07-22 09:43:00,83.0,73.0,-100.00,West,262,7.0,13.0,72,-99.99,,,-99.99,,2013-07-22 13:43:00,
2013-07-22 09:53:00,83.0,72.0,-100.00,North,3,6.0,12.0,70,-99.99,,,-99.99,,2013-07-22 13:53:00,
2013-07-22 10:32:00,84.0,73.0,-100.00,NE,55,6.0,12.0,70,-99.99,,,-99.99,,2013-07-22 14:32:00,
2013-07-22 10:53:00,84.0,74.0,-100.00,WSW,243,6.0,16.0,71,-99.99,,,-99.99,,2013-07-22 14:53:00,
2013-07-22 11:52:00,84.0,72.0,-100.00,NE,49,7.0,13.0,68,-99.99,,,-99.99,,2013-07-22 15:52:00,
2013-07-22 12:43:00,84.0,72.0,-100.00,South,177,7.0,13.0,68,-99.99,,,-99.99,,2013-07-22 16:43:00,
2013-07-22 13:43:00,86.0,73.0,-100.00,NNE,27,6.0,12.0,65,-99.99,,,-99.99,,2013-07-22 17:43:00,
2013-07-22 13:52:00,86.0,73.0,-100.00,SSW,194,7.0,14.0,66,-99.99,,,-99.99,,2013-07-22 17:52:00,
2013-07-22 17:43:00,86.0,74.0,-100.00,NE,49,6.0,12.0,67,-99.99,,,-99.99,,2013-07-22 21:43:00,
2013-07-22 18:43:00,85.0,74.0,-100.00,SE,138,7.0,14.0,69,-99.99,,,-99.99,,2013-07-22 22:43:00,
2013-07-22 19:01:00,84.0,73.0,-100.00,ENE,66,7.0,13.0,69,-99.99,,,-99.99,,2013-07-22 23:01:00,
2013-07-22 19:32:00,84.0,73.0,-100.00,NE,48,6.0,12.0,69,-99.99,,,-99.99,,2013-07-22 23:32:00,
2013-07-22 19:42:00,83.0,72.0,-100.00,East,101,6.0,12.0,70,-99.99,,,-99.99,,2013-07-22 23:42:00,
2013-07-22 19:52:00,83.0,72.0,-100.00,NE,56,6.0,11.0,70,-99.99,,,-99.99,,2013-07-22 23:52:00,
2013-07-22 20:01:00,83.0,73.0,-100.00,SW,233,6.0,12.0,71,-99.99,,,-99.99,,2013-07-23 00:01:00,
2013-07-22 20:12:00,83.0,73.0,-100.00,NNE,17,5.0,11.0,71,-99.99,,,-99.99,,2013-07-23 00:12:00,
2013-07-22 20:43:00,82.0,72.0,-100.00,NE,45,5.0,10.0,72,-99.99,,,-99.99,,2013-07-23 00:43:00,
2013-07-22 20:52:00,82.0,72.0,-100.00,SSE,156,5.0,10.0,72,-99.99,,,-99.99,,2013-07-23 00:52:00,
2013-07-22 21:01:00,82.0,72.0,-100.00,ENE,62,6.0,11.0,73,-99.99,,,-99.99,,2013-07-23 01:01:00,
2013-07-22 21:43:00,82.0,73.0,-100.00,SSE,148,5.0,9.0,74,-99.99,,,-99.99,,2013-07-23 01:43:00,
2013-07-22 23:43:00,82.0,74.0,-100.00,NNE,24,6.0,11.0,76,-99.99,,,-99.99,,2013-07-23 03:43:00,